Flag for U.S.A. Weather past 2 weeks in Bismarck, North Dakota, U.S.A.

Now
37 °F

Clear.


Feels Like: 32 °F
Forecast: 35 / 74 °F
Wind: 7 mph from East

Location: Bismarck Municipal Airport


UV Index: 3 (Moderate)

Visibility: 10 mi


Pressure: 30.01 "Hg

Humidity: N/A

Dew point: N/A

Location of BismarckLocation

Historic Weather in Bismarck

°F

Bismarck temperature yesterday

Maximum temperature yesterday: 66 °F (at 2:52 PM)
Minimum temperature yesterday: 39 °F (at 6:52 AM)
Average temperature yesterday: 52 °F

Past Weeks' High & Low Weather Summary

 TemperatureHumidityPressure
High78 °F (Apr 9, 2:52 PM)96% (Apr 12, 5:52 AM)30.39 "Hg (Apr 12, 5:52 AM)
Low16 °F (Apr 14, 11:52 PM)20% (Apr 9, 2:52 PM)29.51 "Hg (Apr 9, 3:52 PM)
Average40 °F59%29.98 "Hg
* Reported Apr 5 12:52 AM — Apr 20 12:52 AM, Bismarck, Weather by CustomWeather, © 2014

Note: Actual official high and low records may vary slightly from our data, if they occured in-between our weather recording intervals... More about our weather records

Advertising

Historic Weather Conditions — Data for Previous 24 hours

 ConditionsComfort  
Time TempWeatherWind HumidityBarometerVisibility
12:52 AM
Apr 20
39 °FClear.5 mphN/A30.01 "Hg10 mi
11:52 PM
Apr 19
39 °FClear.8 mphN/A30.01 "Hg10 mi
10:52 PM45 °FClear.7 mphN/A30.01 "Hg10 mi
9:52 PM46 °FClear.8 mphN/A30.00 "Hg10 mi
8:52 PM54 °FSunny.5 mph47%29.99 "Hg10 mi
7:52 PM60 °FSunny.7 mph38%29.98 "Hg10 mi
6:52 PM63 °FSunny.12 mph34%29.97 "Hg10 mi
5:52 PM64 °FSunny.13 mph33%29.95 "Hg10 mi
4:52 PM66 °FSunny.15 mph31%29.93 "Hg10 mi
3:52 PM66 °FSunny.21 mph28%29.93 "Hg10 mi
2:52 PM66 °FSunny.22 mph23%29.93 "Hg10 mi
1:52 PM65 °FSunny.21 mph26%29.93 "Hg10 mi
12:52 PM62 °FSunny.17 mph29%29.93 "Hg10 mi
11:52 AM59 °FSunny.21 mph32%29.93 "Hg10 mi
10:52 AM55 °FSunny.25 mph37%29.93 "Hg10 mi
9:52 AM53 °FSunny.24 mph37%29.92 "Hg10 mi
8:52 AM46 °FSunny.9 mph54%29.90 "Hg10 mi
7:52 AM40 °FSunny.10 mph73%29.89 "Hg10 mi
6:52 AM39 °FClear.8 mph79%29.85 "Hg10 mi
5:52 AM43 °FClear.14 mph74%29.82 "Hg10 mi
4:52 AM43 °FPassing clouds.13 mph79%29.81 "Hg10 mi
3:52 AM46 °FOvercast.18 mph77%29.78 "Hg10 mi
2:52 AM47 °FClear.20 mph74%29.76 "Hg10 mi
Weather by CustomWeather, © 2014

See weather overview